Regional Weather Roundup
Issued by NWS Jackson, KY

Home | Current Version | Previous Version | Graphics & Text | Print | Product List | Glossary On
Versions: 1 2 3 4 5 6 7 8 9 10 11 12 13 14 15 16 17 18 19 20 21 22 23 24 25 26 27
000
ASUS43 KJKL 220510
RWRJKL

EAST KENTUCKY HOURLY WEATHER ROUNDUP
NATIONAL WEATHER SERVICE JACKSON KY
100 AM EDT WED MAR 22 2017

NOTE: "FAIR" INDICATES FEW OR NO CLOUDS BELOW 12,000 FEET WITH
NO SIGNIFICANT WEATHER AND/OR OBSTRUCTIONS TO VISIBILITY.

* THESE REPORTS ARE NOT UNDER NWS QUALITY CONTROL AND MAY NOT
  REPORT WEATHER SUCH AS PRECIPITATION AND FOG.

KYZ079-080-083-085-087-088-110-112-115-119-120-220600
...EASTERN KENTUCKY...

CITY           SKY/WX    TMP DP  RH WIND       PRES   REMARKS
JACKSON          N/A     49  40  71 NE3       30.10S
LONDON           N/A     49  38  65 N6        30.10R
SOMERSET*        N/A     46  39  76 N6        30.13R
MONTICELLO*      N/A     50  42  74 N15       30.14R
WILLIAMSBURG*    N/A     50  39  66 N8        30.09S
MIDDLESBORO*     N/A     53  44  72 CALM      30.08R
HARLAN APT*      N/A     52  41  66 NE3       30.08S
PIKE CO APT*     N/A     47  41  78 CALM      30.09S
BIG SANDY APT*   N/A     47  41  78 CALM      30.10R
MOREHEAD APT*  CLOUDY    48  34  57 N10G17    30.17R
ASHLAND*       CLOUDY    48  36  61 N8        30.12R
$$

KYZ035-036-041-042-044-050-067-078-099-220600
...CENTRAL KENTUCKY...

CITY           SKY/WX    TMP DP  RH WIND       PRES   REMARKS
MT STERLING*     N/A     46  36  66 NE7       30.17R
FLEMING/MASON* CLOUDY    46  22  39 N13       30.18R
DANVILLE*        N/A     46  36  66 N12G17    30.17R
LEXINGTON        N/A     47  30  51 N10       30.18R
FRANKFORT      MOCLDY    49  31  49 N9        30.18R
LOUISVILLE       N/A     49  29  46 N15       30.22R
LEBANON*         N/A     48  36  61 N13       30.18R
GLASGOW*       CLOUDY    55  38  53 N7        30.16R
BOWLING GREEN  CLOUDY    57  36  45 N5        30.17R
$$

KYZ091>093-OHZ055-061-077-WVZ005-015-034-035-042-220600
...SOUTHERN OHIO/WEST VIRGINIA...

CITY           SKY/WX    TMP DP  RH WIND       PRES   REMARKS
COVINGTON        N/A     41  25  53 N15       30.22R
COLUMBUS         N/A     38  26  62 N25G31    30.19R WCI  27
DAYTON           N/A     35  25  66 N25G32    30.24R WCI  23
WILMINGTON       N/A     37  25  61 N15G22    30.20R WCI  28
HUNTINGTON     MOCLDY    50  37  61 NW9       30.11S
CHARLESTON     LGT RAIN  49  41  74 NW10      30.06F
PINEVILLE*       N/A     40  37  89 MISG      30.12R
BECKLEY          N/A     39  38  96 SW3       30.04F
BLUEFIELD        N/A     41  36  82 W6        30.06F
LOGAN CO APT*    N/A     46  43  87 CALM      30.07R
$$

VAZ002-007-008-TNZ017-027-036-066-071-220600
...SOUTHWEST VIRGINIA/EAST TENNESSEE...

CITY           SKY/WX    TMP DP  RH WIND       PRES   REMARKS
WISE*          MOCLDY    46  37  71 CALM      30.09S
JONESVILLE*      N/A     54  43  66 N5        30.09S
ABINGDON*        N/A     53  35  50 NE5       30.06S
BRISTOL          N/A     53  36  52 N7        30.06F
MORRISTOWN*    MOCLDY    59  46  63 NE5G12    30.02F
SEVIERVILLE*   PTCLDY    57  55  94 CALM      30.03S
KNOXVILLE        N/A     58  51  78 N6        30.03S
LAFOLLETTE*    CLEAR     55  45  67 VRB6      30.08F
OAK RIDGE        N/A     59  45  59 VRB3      30.04F
CROSSVILLE       N/A     51  44  77 N7        30.08R
NASHVILLE      MOCLDY    57  50  77 N6        30.13F
$$

...KEY TO REMARKS...
VSB - VISIBILITY IN MILES
WCI - WIND CHILL INDEX
HX  - HEAT INDEX

$$




USA.gov is the U.S. government's official web portal to all federal, state and local government web resources and services.